Stations météo

réclame
Mon MeteoGroup
Westdorpe aws, Pays-Bas (6319): Température de l'air & dewpoint: 12.01.2019 12:00:00 - 18.01.2019 12:00:00 (CET)Westdorpe aws, Pays-Bas (6319): Température de l'air 5cm: 12.01.2019 12:00:00 - 18.01.2019 12:00:00 (CET)Westdorpe aws, Pays-Bas (6319): Vitesse du vent & gusts: 12.01.2019 12:00:00 - 18.01.2019 12:00:00 (CET)Westdorpe aws, Pays-Bas (6319): Direction du vent: 12.01.2019 12:00:00 - 18.01.2019 12:00:00 (CET)Westdorpe aws, Pays-Bas (6319): reduced air pressure: 12.01.2019 12:00:00 - 18.01.2019 12:00:00 (CET)Westdorpe aws, Pays-Bas (6319): visibility: 12.01.2019 12:00:00 - 18.01.2019 12:00:00 (CET)Westdorpe aws, Pays-Bas (6319): Quantités de précipitations: 12.01.2019 12:00:00 - 18.01.2019 12:00:00 (CET)
Date & Time tt [°C] td [°C] tt 5cm [°C] ff [km/h] ff [knt] fx [km/h] fx [knt] dd ppp [hPa] vv [km] rr [mm]
18.01.2019 12:00:00 1,3 1,1 0,8 7 4 11 6 SSE 1020,2 7 0,0
18.01.2019 11:00:00 0,5 0,3 -0,2 7 4 11 6 SSE 1020,3 5 0,0
18.01.2019 10:00:00 -0,9 -1,0 -1,5 7 4 7 4 SE 1019,9 3,5 0,0
18.01.2019 09:00:00 0,1 -0,2 -2,7 7 4 7 4 S 1019,5 6 0,0
18.01.2019 08:00:00 -1,2 -1,5 -2,7 7 4 7 4 S 1018,9 4,5 0,0
18.01.2019 07:00:00 0,2 0,0 -2,4 7 4 11 6 S 1018,7 7 0,0
18.01.2019 06:00:00 -0,7 -0,8 -2,9 4 2 11 6 S 1018,3 3,5 0,0
18.01.2019 05:00:00 -0,1 -0,3 -1,4 7 4 7 4 SW 1018,3 9 0,0
18.01.2019 04:00:00 -0,4 -0,7 -1,5 4 2 14 8 S 1018,1 14 0,0
18.01.2019 03:00:00 0,6 0,2 -0,9 4 2 11 6 WSW 1017,4 23 0,0
18.01.2019 02:00:00 1,0 0,6 -0,5 4 2 25 14 SE 1017,1 18 0,0
18.01.2019 01:00:00 1,4 0,8 -0,4 11 6 18 10 WSW 1016,3 12 0,0
18.01.2019 00:00:00 2,3 0,5 0,7 11 6 22 12 WNW 1015,7 43 0,1
17.01.2019 23:00:00 2,2 1,1 0,8 11 6 40 21 WNW 1015,2 49 0,6
17.01.2019 22:00:00 2,3 1,1 1,5 29 16 47 25 NNW 1014,9 4,1 0,9
17.01.2019 21:00:00 3,1 1,3 2,1 25 14 32 18 W 1013,7 30 0,1
17.01.2019 20:00:00 3,3 0,5 1,7 22 12 36 19 WNW 1013,0 9 0,3
17.01.2019 19:00:00 4,2 0,1 2,8 18 10 32 18 WNW 1011,7 35 0,0
17.01.2019 18:00:00 3,3 1,6 2,1 22 12 61 33 WNW 1010,4 27 0,3
17.01.2019 17:00:00 3,9 0,4 3,0 32 18 50 27 W 1009,4 28 0,0
17.01.2019 16:00:00 4,1 0,0 3,1 32 18 50 27 WNW 1008,7 35 0,0
17.01.2019 15:00:00 4,4 0,5 3,3 36 19 61 33 WNW 1007,8 29 0,5
17.01.2019 14:00:00 4,9 1,6 4,2 32 18 54 29 WNW 1007,2 32 0,2
17.01.2019 13:00:00 3,8 1,1 3,3 29 16 58 31 NW 1006,3 18 0,2
17.01.2019 12:00:00 3,9 2,3 3,5 47 25 61 33 NW 1005,7 12 0,1
17.01.2019 11:00:00 5,2 3,5 3,9 25 14 36 19 WNW 1004,3 33 0,3
17.01.2019 10:00:00 4,2 3,2 3,5 22 12 36 19 W 1003,3 10 0,2
17.01.2019 09:00:00 4,4 3,6 3,7 18 10 32 18 WSW 1002,3 24 0,1
17.01.2019 08:00:00 4,7 3,6 3,9 22 12 29 16 SW 1001,9 37 0,0
17.01.2019 07:00:00 5,0 3,7 4,1 22 12 32 18 SW 1002,1 26 0,0
17.01.2019 06:00:00 4,9 3,9 3,6 18 10 25 14 SW 1002,3 14 0,0
17.01.2019 05:00:00 4,5 3,8 3,2 18 10 25 14 SW 1002,9 12 0,0
17.01.2019 04:00:00 4,9 4,3 3,6 18 10 25 14 SW 1002,9 10 0,0
17.01.2019 03:00:00 5,3 4,6 4,1 18 10 29 16 WSW 1003,4 22 0,0
17.01.2019 02:00:00 5,6 5,1 4,6 18 10 25 14 WSW 1003,3 15 0,0
17.01.2019 01:00:00 5,2 4,9 4,3 7 4 18 10 WSW 1003,2 20 0,0
17.01.2019 00:00:00 5,8 5,2 5,0 14 8 36 19 W 1003,3 8 0,2
16.01.2019 23:00:00 6,1 5,2 5,2 29 16 47 25 WSW 1002,6 5 0,0
16.01.2019 22:00:00 6,2 4,6 5,3 32 18 47 25 SW 1002,2 6 0,0
16.01.2019 21:00:00 5,8 4,1 4,9 29 16 47 25 SSW 1002,5 12 0,1
16.01.2019 20:00:00 6,0 3,3 5,1 29 16 43 23 SSW 1002,8 18 0,0
16.01.2019 19:00:00 5,8 3,1 5,1 29 16 50 27 SSW 1003,6 21 0,0
16.01.2019 18:00:00 5,9 3,0 5,0 29 16 43 23 SSW 1004,2 21 0,0
16.01.2019 17:00:00 5,9 3,2 5,1 25 14 43 23 SSW 1005,0 20 0,0
16.01.2019 16:00:00 5,8 2,7 5,0 29 16 43 23 SSW 1005,5 36 0,0
16.01.2019 15:00:00 6,5 3,3 6,1 29 16 40 21 S 1005,7 40 0,0
16.01.2019 14:00:00 6,1 3,3 5,4 25 14 40 21 S 1007,2 24 0,0
16.01.2019 13:00:00 6,3 3,4 5,8 25 14 40 21 SSW 1008,1 29 0,0
16.01.2019 12:00:00 6,2 3,4 5,8 32 18 43 23 SSW 1009,4 28 0,0
16.01.2019 11:00:00 6,2 3,5 5,6 25 14 40 21 SSW 1010,3 19 0,0
16.01.2019 10:00:00 6,0 3,4 5,3 22 12 47 25 SSW 1011,0 14 0,0
16.01.2019 09:00:00 6,0 3,3 5,1 22 12 40 21 SSW 1011,0 20 0,0
16.01.2019 08:00:00 6,2 3,4 5,3 29 16 47 25 SSW 1011,1 24 0,0
16.01.2019 07:00:00 6,6 3,8 5,6 32 18 50 27 SSW 1011,6 29 0,0
16.01.2019 06:00:00 6,6 4,3 5,6 25 14 36 19 SW 1012,4 41 0,0
16.01.2019 05:00:00 6,6 4,7 5,7 25 14 36 19 SW 1013,0 23 0,0
16.01.2019 04:00:00 6,9 5,0 5,9 29 16 40 21 SW 1013,6 23 0,0
16.01.2019 03:00:00 7,0 5,5 6,0 29 16 40 21 SW 1014,3 18 0,0
16.01.2019 02:00:00 6,7 5,8 5,9 25 14 40 21 SW 1014,8 11 0,1
16.01.2019 01:00:00 6,9 6,1 6,1 25 14 36 19 SW 1015,3 5 0,0
16.01.2019 00:00:00 7,0 6,1 6,2 22 12 40 21 SW 1015,8 25 0,0
15.01.2019 23:00:00 7,1 6,0 6,2 29 16 40 21 SW 1016,3 24 0,0
15.01.2019 22:00:00 7,2 5,8 6,3 25 14 40 21 SW 1016,7 48 0,0
15.01.2019 21:00:00 7,4 4,9 6,4 29 16 36 19 SW 1016,8 45 0,0
15.01.2019 20:00:00 7,1 4,6 6,1 22 12 32 18 SW 1017,3 50 0,0
15.01.2019 19:00:00 7,2 4,5 6,0 22 12 32 18 SW 1017,6 48 0,0
15.01.2019 18:00:00 7,1 4,6 6,1 18 10 32 18 WSW 1018,0 49 0,0
15.01.2019 17:00:00 7,4 4,4 6,3 22 12 36 19 WSW 1018,1 48 0,0
15.01.2019 16:00:00 7,5 4,9 6,7 22 12 32 18 WSW 1018,3 47 0,0
15.01.2019 15:00:00 7,6 4,9 6,9 22 12 32 18 WSW 1018,4 43 0,0
15.01.2019 14:00:00 7,2 4,7 6,6 22 12 32 18 WSW 1018,8 35 0,0
15.01.2019 13:00:00 6,8 4,6 6,2 22 12 36 19 WSW 1019,4 33 0,0
15.01.2019 12:00:00 6,3 3,8 5,5 25 14 36 19 WSW 1019,9 33 0,0
15.01.2019 11:00:00 5,9 3,4 5,0 25 14 36 19 WSW 1020,2 33 0,0
15.01.2019 10:00:00 4,6 3,0 3,7 22 12 29 16 WSW 1020,3 31 0,0
15.01.2019 09:00:00 4,4 2,9 3,4 22 12 25 14 WSW 1020,3 24 0,0
15.01.2019 08:00:00 4,6 3,4 3,5 18 10 22 12 SW 1020,3 17 0,0
15.01.2019 07:00:00 4,9 3,9 3,8 14 8 25 14 SW 1020,5 14 0,0
15.01.2019 06:00:00 5,0 3,9 4,0 18 10 25 14 SW 1020,6 13 0,0
15.01.2019 05:00:00 5,0 3,9 3,9 18 10 25 14 WSW 1021,1 12 0,0
15.01.2019 04:00:00 4,2 3,2 3,2 14 8 22 12 SW 1021,4 17 0,0
15.01.2019 03:00:00 3,5 2,9 2,3 11 6 14 8 SSW 1021,7 14 0,0
15.01.2019 02:00:00 2,7 2,3 1,2 7 4 14 8 SSW 1021,9 15 0,0
15.01.2019 01:00:00 3,5 2,9 2,4 7 4 11 6 SW 1021,9 16 0,0
15.01.2019 00:00:00 3,1 2,4 1,0 7 4 11 6 SW 1022,2 16 0,0
14.01.2019 23:00:00 4,1 3,7 2,8 7 4 11 6 SW 1022,1 18 0,0
14.01.2019 22:00:00 4,5 3,8 3,6 7 4 11 6 W 1022,0 25 0,0
14.01.2019 21:00:00 4,6 3,8 3,5 7 4 18 10 W 1021,7 29 0,0
14.01.2019 20:00:00 5,1 3,6 4,2 14 8 22 12 WNW 1021,7 13 0,2
14.01.2019 19:00:00 5,2 3,1 4,0 11 6 14 8 W 1021,5 22 0,0
14.01.2019 18:00:00 5,5 2,8 4,4 7 4 14 8 WNW 1020,8 14 0,0
14.01.2019 17:00:00 5,8 3,4 4,8 7 4 25 14 NW 1020,5 36 0,0
14.01.2019 16:00:00 6,8 2,2 5,8 18 10 32 18 NNW 1019,9 42 0,0
14.01.2019 15:00:00 7,1 2,4 6,0 25 14 43 23 NNW 1019,1 43 0,0
14.01.2019 14:00:00 7,1 3,3 6,1 25 14 40 21 NNW 1018,5 43 0,0
14.01.2019 13:00:00 6,6 3,6 5,5 22 12 40 21 NNW 1017,8 31 0,1
14.01.2019 12:00:00 7,3 5,7 6,7 22 12 29 16 NW 1017,3 16 0,1
14.01.2019 11:00:00 6,7 5,3 5,8 18 10 29 16 NW 1016,4 42 1,0
14.01.2019 10:00:00 6,0 4,5 5,2 18 10 36 19 N 1016,1 10 0,9
14.01.2019 09:00:00 6,5 4,5 5,5 22 12 36 19 NW 1014,8 9 0,0
14.01.2019 08:00:00 6,7 4,2 5,5 25 14 36 19 WNW 1013,9 19 0,0
14.01.2019 07:00:00 6,5 4,2 5,1 25 14 36 19 WNW 1013,6 19 0,0
14.01.2019 06:00:00 6,7 4,4 5,3 22 12 36 19 WNW 1012,8 17 0,0
14.01.2019 05:00:00 7,2 4,7 6,1 25 14 32 18 WNW 1012,4 18 0,0
14.01.2019 04:00:00 6,7 4,4 5,3 22 12 36 19 WNW 1011,9 17 0,0
14.01.2019 03:00:00 7,0 4,5 5,8 22 12 40 21 WNW 1011,2 17 0,0
14.01.2019 02:00:00 7,3 4,5 6,1 25 14 40 21 WNW 1010,3 17 0,0
14.01.2019 01:00:00 7,5 4,5 6,1 25 14 40 21 WNW 1009,8 17 0,0
14.01.2019 00:00:00 7,8 4,7 6,7 25 14 40 21 WNW 1009,2 18 0,0
13.01.2019 23:00:00 8,7 5,0 7,4 29 16 50 27 WNW 1008,5 23 0,0
13.01.2019 22:00:00 9,1 5,8 7,8 29 16 47 25 WNW 1008,1 33 0,0
13.01.2019 21:00:00 9,2 7,0 7,9 36 19 58 31 WNW 1007,6 17 0,2
13.01.2019 20:00:00 10,0 7,1 8,5 36 19 58 31 WNW 1007,1 48 0,4
13.01.2019 19:00:00 10,1 7,5 8,5 36 19 58 31 W 1006,7 47 0,0
13.01.2019 18:00:00 10,0 7,5 8,8 36 19 54 29 W 1007,2 49 0,0
13.01.2019 17:00:00 9,6 7,3 8,4 40 21 54 29 W 1007,5 35 0,0
13.01.2019 16:00:00 9,9 7,2 8,7 36 19 58 31 W 1007,8 41 0,0
13.01.2019 15:00:00 9,9 7,2 8,9 40 21 58 31 W 1007,1 34 0,0
13.01.2019 14:00:00 9,9 7,6 8,7 36 19 54 29 W 1007,9 41 0,0
13.01.2019 13:00:00 9,6 8,1 8,6 36 19 50 27 W 1008,7 36 0,2
13.01.2019 12:00:00 9,7 8,0 8,6 36 19 47 25 W 1009,8 8 0,6
13.01.2019 11:00:00 9,9 7,7 8,9 32 18 47 25 W 1010,2 42 0,0
13.01.2019 10:00:00 9,6 7,5 8,5 29 16 47 25 W 1010,8 27 0,0
13.01.2019 09:00:00 9,7 7,4 8,6 32 18 47 25 W 1011,2 39 0,0
13.01.2019 08:00:00 9,6 7,3 8,4 32 18 47 25 W 1011,6 33 0,0
13.01.2019 07:00:00 9,6 7,2 8,3 32 18 43 23 W 1011,7 34 0,0
13.01.2019 06:00:00 9,4 7,6 8,2 25 14 40 21 W 1012,0 20 0,0
13.01.2019 05:00:00 8,8 8,0 7,7 25 14 36 19 W 1012,8 6 0,1
13.01.2019 04:00:00 8,5 8,1 7,5 29 16 36 19 W 1013,6 2,7 0,2
13.01.2019 03:00:00 8,1 7,9 7,2 22 12 32 18 W 1013,9 3,1 0,9
13.01.2019 02:00:00 7,9 7,7 7,1 22 12 36 19 W 1014,3 2,5 0,6
13.01.2019 01:00:00 7,7 7,3 6,8 22 12 29 16 W 1015,0 5 0,5
13.01.2019 00:00:00 7,6 6,8 6,7 22 12 32 18 W 1015,4 4,0 0,1
12.01.2019 23:00:00 8,3 6,1 7,2 25 14 40 21 W 1015,9 39 0,0
12.01.2019 22:00:00 8,3 5,9 7,2 25 14 36 19 W 1016,1 45 0,0
12.01.2019 21:00:00 8,3 5,9 7,2 25 14 40 21 W 1016,3 40 0,0
12.01.2019 20:00:00 8,3 6,2 7,1 25 14 36 19 W 1016,9 41 0,0
12.01.2019 19:00:00 8,3 6,6 7,1 25 14 40 21 W 1017,0 33 0,0
12.01.2019 18:00:00 8,4 6,7 7,2 29 16 43 23 W 1017,2 18 0,1
12.01.2019 17:00:00 8,5 6,8 7,5 29 16 43 23 W 1017,5 34 0,0
12.01.2019 16:00:00 8,7 6,8 7,6 32 18 50 27 W 1017,5 38 0,0
12.01.2019 15:00:00 8,7 6,9 7,8 36 19 47 25 W 1017,6 36 0,0
12.01.2019 14:00:00 8,4 6,7 7,3 29 16 43 23 W 1018,4 32 0,0
12.01.2019 13:00:00 7,6 6,9 6,7 25 14 36 19 WSW 1019,4 29 0,4
12.01.2019 12:00:00 7,0 6,3 6,4 25 14 40 21 WSW 1020,6 3,0 0,0

tt = Température de l'air
td = dewpoint
tt 5cm = Température de l'air 5cm
ff = Vitesse du vent
fx = gusts
dd = Direction du vent
ppp = reduced air pressure
vv = visibility
rr = Quantités de précipitations

stations d'obs. à proximité